Poplar Bluff, MO

2:35 PM CDT on April 27, 2017 (GMT -0500)
Poplar Bluff Municipal

Weather History for KPOF - August, 2014

Change the Weather History Date:

Saturday, August 16, 2014

  Actual Average Record
Temperature  
Mean Temperature 75 °F -  
Max Temperature 86 °F 87 °F 106 °F (1954)
Min Temperature 66 °F 67 °F 51 °F (1929)
Cooling Degree Days 10    
Growing Degree Days 25 (Base 50)    
Moisture  
Dew Point 66 °F    
Average Humidity 72    
Maximum Humidity 90    
Minimum Humidity 51    
Precipitation  
Precipitation 0.00 in - - ()
Sea Level Pressure  
Sea Level Pressure 29.92 in    
Wind  
Wind Speed 3 mph (South)    
Max Wind Speed 12 mph    
Max Gust Speed 16 mph    
Visibility 10 miles    
Events      
Averages and records for this station are not official NWS values.
T = Trace of Precipitation, MM = Missing Value Source: NWS Daily Summary

Daily Weather History Graph

Daily Weather History Graph

Search for Another Location

Airport or City:

Trip Planner

Search our weather history database for the weather conditions in past years. The results will help you decide how hot, cold, wet, or windy it might be!

Date:

Astronomy

Aug. 16, 2014 Rise Set
Actual Time 6:19 AM CDT 7:51 PM CDT
Civil Twilight 5:51 AM CDT 8:18 PM CDT
Nautical Twilight 5:18 AM CDT 8:51 PM CDT
Astronomical Twilight 4:44 AM CDT 9:26 PM CDT
Moon 11:46 PM CDT (8/16) 12:54 PM CDT (8/16)
Length of Visible Light 14h 26m
Length of Day
13h 31m
Waning Gibbous, 58% of the Moon is Illuminated
Aug 16
Waning Gibbous
Aug 17
Last Quarter
Aug 25
New
Sep 2
First Quarter
Sep 8
Full

Hourly Weather History & Observations

Time (CDT) Temp. Heat Index Dew Point Humidity Pressure Visibility Wind Dir Wind Speed Gust Speed Precip Events Conditions
12:53 AM 71.1 °F - 64.0 °F 78% 29.94 in 10.0 mi Calm Calm - N/A   Clear
1:53 AM 68.0 °F - 64.0 °F 87% 29.94 in 10.0 mi Calm Calm - N/A   Clear
2:53 AM 68.0 °F - 64.0 °F 87% 29.95 in 9.0 mi Calm Calm - N/A   Clear
3:53 AM 66.9 °F - 64.0 °F 90% 29.94 in 7.0 mi Calm Calm - N/A   Clear
4:53 AM 66.9 °F - 64.0 °F 90% 29.93 in 5.0 mi Calm Calm - N/A   Clear
5:53 AM 69.1 °F - 64.0 °F 84% 29.94 in 9.0 mi Calm Calm - N/A   Clear
6:53 AM 69.1 °F - 64.0 °F 84% 29.95 in 10.0 mi Calm Calm - N/A   Clear
7:53 AM 70.0 °F - 64.0 °F 81% 29.96 in 10.0 mi Calm Calm - N/A   Clear
8:53 AM 72.0 °F - 64.0 °F 76% 29.99 in 10.0 mi Calm Calm - N/A   Partly Cloudy
9:53 AM 73.9 °F - 64.9 °F 73% 29.99 in 10.0 mi North - - N/A   Clear
10:53 AM 75.9 °F - 64.9 °F 69% 29.99 in 10.0 mi SW 5.8 mph - N/A   Clear
11:53 AM 79.0 °F - 66.9 °F 66% 29.96 in 10.0 mi SSE 8.1 mph - N/A   Clear
12:53 PM 82.0 °F 83.8 °F 64.9 °F 56% 29.94 in 10.0 mi South 11.5 mph - N/A   Clear
1:53 PM 84.0 °F 85.4 °F 64.0 °F 51% 29.92 in 10.0 mi South 9.2 mph - N/A   Clear
2:53 PM 84.0 °F 86.3 °F 66.0 °F 55% 29.91 in 10.0 mi SSW 10.4 mph - N/A   Partly Cloudy
3:53 PM 84.9 °F 86.6 °F 64.9 °F 51% 29.89 in 10.0 mi South 11.5 mph 16.1 mph N/A   Clear
4:53 PM 82.0 °F 84.1 °F 66.0 °F 58% 29.88 in 10.0 mi SSE 8.1 mph - N/A   Clear
5:53 PM 81.0 °F 83.8 °F 68.0 °F 65% 29.87 in 10.0 mi SSE 6.9 mph - N/A   Clear
6:53 PM 82.0 °F 85.5 °F 69.1 °F 65% 29.84 in 10.0 mi SSE 4.6 mph - N/A   Clear
7:53 PM 80.1 °F 82.9 °F 69.1 °F 69% 29.84 in 9.0 mi SSE 8.1 mph - N/A   Mostly Cloudy
8:53 PM 79.0 °F - 69.1 °F 72% 29.85 in 10.0 mi SSE 8.1 mph - N/A   Clear
9:53 PM 78.1 °F - 69.1 °F 74% 29.86 in 10.0 mi SSE 8.1 mph - N/A   Clear
10:53 PM 78.1 °F - 69.1 °F 74% 29.86 in 10.0 mi South 10.4 mph - N/A   Partly Cloudy
11:53 PM 79.0 °F - 70.0 °F 74% 29.86 in 10.0 mi South 8.1 mph - N/A   Partly Cloudy